Litchfield, MN

8:06 PM CST on November 19, 2019 (GMT -0600)
Litchfield Municipal

Weather History for KLJF - October, 2019

Change the Weather History Date:

Sunday, October 20, 2019

  Actual Average Record
Temperature  
Mean Temperature 50 °F -  
Max Temperature 64 °F 57 °F 81 °F (1953)
Min Temperature 37 °F 35 °F 19 °F (1952)
Degree Days  
Heating Degree Days 14    
Moisture  
Dew Point 39 °F    
Average Humidity 65    
Maximum Humidity 100    
Minimum Humidity 34    
Precipitation  
Precipitation 0.00 in - - ()
Sea Level Pressure  
Sea Level Pressure 29.78 in    
Wind  
Wind Speed 3 mph ()    
Max Wind Speed 18 mph    
Max Gust Speed 25 mph    
Visibility 10.0 miles    
Events      
Averages and records for this station are not official NWS values.
T = Trace of Precipitation, MM = Missing Value Source: Averaged Metar Reports

Daily Weather History Graph

Daily Weather History Graph

Search for Another Location

Airport or City:

Astronomy

Oct. 20, 2019 Rise Set
Actual Time 7:40 AM CDT 6:24 PM CDT
Civil Twilight 7:10 AM CDT 6:54 PM CDT
Nautical Twilight 6:36 AM CDT 7:28 PM CDT
Astronomical Twilight 6:02 AM CDT 8:02 PM CDT
Moon 11:23 PM CDT 2:19 PM CDT
Length of Visible Light 11h 44m
Length of Day
10h 44m
Waning Gibbous, 59% of the Moon is Illuminated
Oct 20
Waning Gibbous
Oct 21
Last Quarter
Oct 27
New
Nov 4
First Quarter
Nov 12
Full

Hourly Weather History & Observations

Time (CDT) Temp. Windchill Dew Point Humidity Pressure Visibility Wind Dir Wind Speed Gust Speed Precip Events Conditions
12:15 AM 46.4 °F - 35.6 °F 66% 29.75 in 10.0 mi Calm Calm - N/A   Clear
12:16 AM 46.4 °F - 35.6 °F 66% 29.75 in 10.0 mi Calm Calm - N/A   Clear
12:35 AM 48.2 °F - 35.6 °F 62% 29.75 in 10.0 mi Calm Calm - N/A   Clear
12:40 AM 46.4 °F - 35.6 °F 66% 29.75 in 10.0 mi Calm Calm - N/A   Clear
12:57 AM 46.4 °F - 35.6 °F 66% 29.74 in 10.0 mi Calm Calm - N/A   Clear
1:15 AM 46.4 °F - 35.6 °F 66% 29.74 in 10.0 mi Calm Calm - N/A   Clear
1:35 AM 46.4 °F - 35.6 °F 66% 29.74 in 10.0 mi Calm Calm - N/A   Clear
1:36 AM 46.4 °F - 35.6 °F 66% 29.74 in 10.0 mi Calm Calm - N/A   Clear
1:55 AM 42.8 °F - 35.6 °F 76% 29.74 in 10.0 mi Calm Calm - N/A   Clear
1:56 AM 44.6 °F - 35.6 °F 71% 29.74 in 10.0 mi Calm Calm - N/A   Clear
2:19 AM 44.6 °F - 35.6 °F 71% 29.74 in 10.0 mi Calm Calm - N/A   Clear
2:37 AM 44.6 °F - 35.6 °F 71% 29.75 in 10.0 mi Calm Calm - N/A   Clear
2:56 AM 44.6 °F - 35.6 °F 71% 29.75 in 10.0 mi Calm Calm - N/A   Clear
3:15 AM 44.6 °F - 37.4 °F 76% 29.76 in 10.0 mi Calm Calm - N/A   Clear
3:16 AM 44.6 °F - 37.4 °F 76% 29.76 in 10.0 mi Calm Calm - N/A   Clear
3:35 AM 42.8 °F - 37.4 °F 81% 29.76 in 10.0 mi Calm Calm - N/A   Clear
3:39 AM 42.8 °F - 37.4 °F 81% 29.76 in 10.0 mi Calm Calm - N/A   Clear
3:58 AM 42.8 °F - 37.4 °F 81% 29.76 in 10.0 mi Calm Calm - N/A   Clear
4:16 AM 39.2 °F - 35.6 °F 87% 29.77 in 10.0 mi Calm Calm - N/A   Clear
4:35 AM 39.2 °F - 35.6 °F 87% 29.77 in 10.0 mi Calm Calm - N/A   Clear
4:36 AM 39.2 °F - 35.6 °F 87% 29.77 in 10.0 mi Calm Calm - N/A   Clear
5:18 AM 37.4 °F - 35.6 °F 93% 29.79 in 10.0 mi Calm Calm - N/A   Clear
5:36 AM 37.4 °F - 35.6 °F 93% 29.79 in 10.0 mi Calm Calm - N/A   Clear
5:56 AM 39.2 °F - 35.6 °F 87% 29.79 in 10.0 mi Calm Calm - N/A   Clear
6:15 AM 39.2 °F - 35.6 °F 87% 29.79 in 10.0 mi Calm Calm - N/A   Clear
6:16 AM 39.2 °F - 35.6 °F 87% 29.79 in 10.0 mi Calm Calm - N/A   Clear
6:35 AM 37.4 °F - 35.6 °F 93% 29.80 in 10.0 mi Calm Calm - N/A   Clear
6:39 AM 37.4 °F - 35.6 °F 93% 29.80 in 10.0 mi Calm Calm - N/A   Clear
6:57 AM 37.4 °F - 35.6 °F 93% 29.80 in 10.0 mi Calm Calm - N/A   Clear
7:15 AM 37.4 °F - 35.6 °F 93% 29.81 in 10.0 mi Calm Calm - N/A   Clear
7:35 AM 37.4 °F - 37.4 °F 100% 29.81 in 10.0 mi Calm Calm - N/A   Clear
7:36 AM 37.4 °F - 37.4 °F 100% 29.81 in 10.0 mi Calm Calm - N/A   Clear
7:55 AM 37.4 °F - 37.4 °F 100% 29.82 in 10.0 mi Calm Calm - N/A   Clear
7:56 AM 37.4 °F - 37.4 °F 100% 29.82 in 10.0 mi Calm Calm - N/A   Clear
8:19 AM 37.4 °F 34.9 °F 37.4 °F 100% 29.82 in 10.0 mi ESE 3.5 mph - N/A   Clear
8:37 AM 39.2 °F - 37.4 °F 93% 29.83 in 10.0 mi Calm Calm - N/A   Clear
8:55 AM 42.8 °F - 41.0 °F 93% 29.83 in 10.0 mi Calm Calm - N/A   Clear
9:15 AM 46.4 °F - 39.2 °F 76% 29.83 in 10.0 mi Calm Calm - N/A   Scattered Clouds
9:16 AM 46.4 °F - 39.2 °F 76% 29.83 in 10.0 mi Calm Calm - N/A   Scattered Clouds
9:35 AM 51.8 °F - 41.0 °F 67% 29.83 in 10.0 mi ESE 3.5 mph - N/A   Clear
9:39 AM 51.8 °F - 42.8 °F 71% 29.83 in 10.0 mi SE 3.5 mph - N/A   Clear
10:15 AM 55.4 °F - 39.2 °F 54% 29.83 in 10.0 mi SSE 4.6 mph - N/A   Clear
10:35 AM 57.2 °F - 39.2 °F 51% 29.83 in 10.0 mi SE 4.6 mph - N/A   Clear
10:36 AM 57.2 °F - 39.2 °F 51% 29.83 in 10.0 mi SE 4.6 mph - N/A   Clear
10:55 AM 60.8 °F - 39.2 °F 45% 29.83 in 10.0 mi SE 6.9 mph - N/A   Clear
11:18 AM 60.8 °F - 39.2 °F 45% 29.83 in 10.0 mi SE 5.8 mph - N/A   Clear
11:36 AM 60.8 °F - 37.4 °F 42% 29.84 in 10.0 mi SE 9.2 mph - N/A   Clear
11:56 AM 62.6 °F - 35.6 °F 37% 29.84 in 10.0 mi SSE 9.2 mph - N/A   Clear
12:15 PM 62.6 °F - 35.6 °F 37% 29.84 in 10.0 mi SE 9.2 mph 16.1 mph N/A   Clear
12:16 PM 62.6 °F - 35.6 °F 37% 29.84 in 10.0 mi SE 9.2 mph 16.1 mph N/A   Clear
12:35 PM 64.4 °F - 35.6 °F 34% 29.83 in 10.0 mi SE 6.9 mph - N/A   Clear
12:58 PM 64.4 °F - 35.6 °F 34% 29.83 in 10.0 mi SE 8.1 mph - N/A   Scattered Clouds
1:15 PM 64.4 °F - 35.6 °F 34% 29.83 in 10.0 mi SSE 6.9 mph - N/A   Scattered Clouds
1:35 PM 64.4 °F - 35.6 °F 34% 29.82 in 10.0 mi SSE 6.9 mph - N/A   Scattered Clouds
1:36 PM 64.4 °F - 35.6 °F 34% 29.82 in 10.0 mi SSE 6.9 mph - N/A   Scattered Clouds
1:55 PM 64.4 °F - 37.4 °F 37% 29.81 in 10.0 mi SE 6.9 mph - N/A   Scattered Clouds
1:56 PM 64.4 °F - 37.4 °F 37% 29.81 in 10.0 mi SE 6.9 mph - N/A   Scattered Clouds
2:18 PM 64.4 °F - 39.2 °F 40% 29.80 in 10.0 mi ESE 10.4 mph - N/A   Clear
2:36 PM 64.4 °F - 39.2 °F 40% 29.80 in 10.0 mi SE 9.2 mph - N/A   Clear
2:56 PM 62.6 °F - 37.4 °F 39% 29.80 in 10.0 mi SE 9.2 mph - N/A   Clear
3:15 PM 62.6 °F - 37.4 °F 39% 29.80 in 10.0 mi SE 8.1 mph - N/A   Clear
3:39 PM 62.6 °F - 41.0 °F 45% 29.80 in 10.0 mi ESE 8.1 mph - N/A   Clear
3:57 PM 62.6 °F - 42.8 °F 48% 29.80 in 10.0 mi ESE 5.8 mph - N/A   Clear
4:15 PM 62.6 °F - 42.8 °F 48% 29.79 in 10.0 mi ESE 5.8 mph - N/A   Clear
4:35 PM 60.8 °F - 42.8 °F 52% 29.79 in 10.0 mi ESE 5.8 mph - N/A   Clear
4:36 PM 60.8 °F - 42.8 °F 52% 29.79 in 10.0 mi ESE 5.8 mph - N/A   Clear
4:55 PM 60.8 °F - 42.8 °F 52% 29.79 in 10.0 mi ESE 5.8 mph - N/A   Clear
4:56 PM 60.8 °F - 42.8 °F 52% 29.79 in 10.0 mi East 5.8 mph - N/A   Clear
5:19 PM 59.0 °F - 44.6 °F 59% 29.78 in 10.0 mi East 5.8 mph - N/A   Scattered Clouds
5:37 PM 59.0 °F - 42.8 °F 55% 29.77 in 10.0 mi East 6.9 mph - N/A   Clear
5:56 PM 57.2 °F - 42.8 °F 59% 29.77 in 10.0 mi East 8.1 mph - N/A   Clear
6:15 PM 57.2 °F - 42.8 °F 59% 29.77 in 10.0 mi East 8.1 mph - N/A   Clear
6:16 PM 57.2 °F - 42.8 °F 59% 29.77 in 10.0 mi East 6.9 mph - N/A   Clear
6:35 PM 55.4 °F - 42.8 °F 63% 29.77 in 10.0 mi East 8.1 mph - N/A   Clear
6:39 PM 55.4 °F - 42.8 °F 63% 29.77 in 10.0 mi East 8.1 mph - N/A   Clear
6:57 PM 55.4 °F - 42.8 °F 63% 29.77 in 10.0 mi East 8.1 mph - N/A   Clear
7:16 PM 57.2 °F - 42.8 °F 59% 29.77 in 10.0 mi East 8.1 mph - N/A   Clear
7:35 PM 55.4 °F - 42.8 °F 63% 29.77 in 10.0 mi ESE 8.1 mph - N/A   Clear
7:36 PM 55.4 °F - 42.8 °F 63% 29.77 in 10.0 mi ESE 8.1 mph - N/A   Clear
7:55 PM 55.4 °F - 42.8 °F 63% 29.77 in 10.0 mi East 9.2 mph - N/A   Clear
8:18 PM 55.4 °F - 42.8 °F 63% 29.77 in 10.0 mi ESE 9.2 mph - N/A   Clear
8:36 PM 57.2 °F - 42.8 °F 59% 29.77 in 10.0 mi ESE 11.5 mph - N/A   Clear
8:56 PM 57.2 °F - 42.8 °F 59% 29.77 in 10.0 mi ESE 12.7 mph - N/A   Clear
9:15 PM 57.2 °F - 42.8 °F 59% 29.76 in 10.0 mi ESE 15.0 mph - N/A   Clear
9:16 PM 57.2 °F - 42.8 °F 59% 29.76 in 10.0 mi ESE 13.8 mph - N/A   Clear
9:35 PM 57.2 °F - 42.8 °F 59% 29.75 in 10.0 mi ESE 13.8 mph - N/A   Clear
9:57 PM 55.4 °F - 42.8 °F 63% 29.75 in 10.0 mi ESE 13.8 mph - N/A   Scattered Clouds
10:15 PM 57.2 °F - 42.8 °F 59% 29.74 in 10.0 mi ESE 13.8 mph - N/A   Scattered Clouds
10:35 PM 57.2 °F - 44.6 °F 63% 29.73 in 10.0 mi East 16.1 mph - N/A   Mostly Cloudy
10:36 PM 57.2 °F - 44.6 °F 63% 29.73 in 10.0 mi East 16.1 mph - N/A   Mostly Cloudy
10:55 PM 57.2 °F - 44.6 °F 63% 29.72 in 10.0 mi ESE 13.8 mph - N/A   Overcast
10:56 PM 57.2 °F - 44.6 °F 63% 29.73 in 10.0 mi ESE 13.8 mph - N/A   Overcast
11:18 PM 57.2 °F - 44.6 °F 63% 29.72 in 10.0 mi ESE 18.4 mph - N/A   Overcast
11:37 PM 57.2 °F - 44.6 °F 63% 29.72 in 10.0 mi ESE 15.0 mph 25.3 mph N/A   Overcast
11:55 PM 55.4 °F - 44.6 °F 67% 29.71 in 10.0 mi ESE 11.5 mph - N/A   Mostly Cloudy
11:56 PM 55.4 °F - 44.6 °F 67% 29.71 in 10.0 mi ESE 12.7 mph - N/A   Mostly Cloudy